Weather History for Waskish, MN

Change the Weather History Date:

Friday, August 23, 2013

  Actual Average (KBDE) Record (KBDE)
Temperature  
Mean Temperature 62 °F -  
Max Temperature 82 °F 75 °F 91 °F (2011)
Min Temperature 42 °F 51 °F 30 °F (1940)
Degree Days  
Heating Degree Days 3    
Growing Degree Days 12 (Base 50)    
Moisture  
Dew Point 53 °F    
Average Humidity 70    
Maximum Humidity 100    
Minimum Humidity 39    
Precipitation  
Precipitation 0.00 in - - ()
Sea Level Pressure  
Sea Level Pressure 30.08 in    
Wind  
Wind Speed 2 mph (SSE)    
Max Wind Speed 8 mph    
Max Gust Speed -    
Visibility 10 miles    
Events      
Averages and records for this station are not official NWS values.
T = Trace of Precipitation, MM = Missing Value Source: NWS Daily Summary

Daily Weather History Graph

Daily Weather History Graph

Search for Another Location

Airport:

Trip Planner

Search our weather history database for the weather conditions in past years. The results will help you decide how hot, cold, wet, or windy it might be!

Date:

Astronomy

Aug. 23, 2013 Rise Set
Actual Time 6:23 AM CDT 8:16 PM CDT
Civil Twilight 5:50 AM CDT 8:49 PM CDT
Nautical Twilight 5:09 AM CDT 9:30 PM CDT
Astronomical Twilight 4:24 AM CDT 10:15 PM CDT
Moon 9:14 PM CDT (8/23) 9:38 AM CDT (8/23)
Length of Visible Light 14h 58m
Length of Day
13h 52m
Waning Gibbous, 91% of the Moon is Illuminated
Aug 23
Waning Gibbous
Aug 28
Last Quarter
Sep 5
New
Sep 12
First Quarter
Sep 19
Full

Hourly Weather History & Observations

Time (CDT) Temp. Windchill Dew Point Humidity Pressure Visibility Wind Dir Wind Speed Gust Speed Precip Events Conditions
12:07 AM 48.2 °F - 46.4 °F 93% 30.16 in 10.0 mi Calm Calm - N/A   Clear
12:28 AM 48.2 °F - 46.4 °F 93% 30.16 in 10.0 mi ESE 3.5 mph - N/A   Clear
12:47 AM 48.2 °F - 46.4 °F 93% 30.16 in 10.0 mi Calm Calm - N/A   Clear
1:07 AM 48.2 °F - 46.4 °F 93% 30.16 in 10.0 mi ESE 3.5 mph - N/A   Clear
1:27 AM 46.4 °F - 44.6 °F 93% 30.15 in 10.0 mi Calm Calm - N/A   Clear
1:47 AM 46.4 °F - 44.6 °F 93% 30.15 in 10.0 mi Calm Calm - N/A   Clear
2:07 AM 46.4 °F - 44.6 °F 93% 30.15 in 10.0 mi Calm Calm - N/A   Clear
2:27 AM 46.4 °F - 44.6 °F 93% 30.15 in 10.0 mi Calm Calm - N/A   Clear
2:47 AM 46.4 °F - 44.6 °F 93% 30.15 in 10.0 mi Calm Calm - N/A   Clear
3:07 AM 44.6 °F - 44.6 °F 100% 30.15 in 10.0 mi Calm Calm - N/A   Clear
3:27 AM 44.6 °F - 42.8 °F 93% 30.14 in 10.0 mi Calm Calm - N/A   Clear
3:47 AM 44.6 °F 43.1 °F 42.8 °F 93% 30.15 in 10.0 mi SE 3.5 mph - N/A   Clear
4:07 AM 44.6 °F - 44.6 °F 100% 30.15 in 10.0 mi Calm Calm - N/A   Clear
4:27 AM 44.6 °F - 42.8 °F 93% 30.14 in 10.0 mi Calm Calm - N/A   Clear
4:47 AM 44.6 °F - 44.6 °F 100% 30.14 in 10.0 mi Calm Calm - N/A   Clear
5:07 AM 44.6 °F - 42.8 °F 93% 30.14 in 10.0 mi Calm Calm - N/A   Clear
5:27 AM 42.8 °F - 42.8 °F 100% 30.14 in 10.0 mi Calm Calm - N/A   Clear
5:47 AM 42.8 °F - 41.0 °F 93% 30.14 in 10.0 mi Calm Calm - N/A   Clear
6:07 AM 42.8 °F - 41.0 °F 93% 30.14 in 10.0 mi Calm Calm - N/A   Clear
6:27 AM 42.8 °F - 42.8 °F 100% 30.15 in 10.0 mi Calm Calm - N/A   Clear
6:47 AM 44.6 °F - 42.8 °F 93% 30.15 in 10.0 mi Calm Calm - N/A   Clear
7:07 AM 44.6 °F - 44.6 °F 100% 30.15 in 10.0 mi Calm Calm - N/A   Clear
7:27 AM 48.2 °F - 48.2 °F 100% 30.15 in 10.0 mi SE 3.5 mph - N/A   Clear
7:47 AM 51.8 °F - 51.8 °F 100% 30.15 in 10.0 mi Calm Calm - N/A   Clear
8:07 AM 55.4 °F - 55.4 °F 100% 30.14 in 10.0 mi SSE 4.6 mph - N/A   Clear
8:27 AM 60.8 °F - 55.4 °F 82% 30.14 in 10.0 mi SSE 4.6 mph - N/A   Clear
8:47 AM 64.4 °F - 55.4 °F 73% 30.13 in 10.0 mi SSE 5.8 mph - N/A   Clear
9:07 AM 68.0 °F - 55.4 °F 64% 30.13 in 10.0 mi Calm Calm - N/A   Clear
9:27 AM 69.8 °F - 55.4 °F 60% 30.13 in 10.0 mi SSE 4.6 mph - N/A   Clear
9:47 AM 71.6 °F - 57.2 °F 60% 30.13 in 10.0 mi SSE 3.5 mph - N/A   Clear
10:07 AM 73.4 °F - 55.4 °F 53% 30.12 in 10.0 mi South 6.9 mph - N/A   Clear
10:27 AM 75.2 °F - 55.4 °F 50% 30.12 in 10.0 mi South 6.9 mph - N/A   Clear
10:47 AM 75.2 °F - 53.6 °F 47% 30.12 in 10.0 mi SSE 8.1 mph - N/A   Clear
11:07 AM 77.0 °F - 55.4 °F 47% 30.11 in 10.0 mi SE 4.6 mph - N/A   Clear
11:27 AM 75.2 °F - 53.6 °F 47% 30.10 in 10.0 mi SSE 5.8 mph - N/A   Clear
11:47 AM 78.8 °F - 55.4 °F 44% 30.10 in 10.0 mi SSE 6.9 mph - N/A   Clear
12:08 PM 78.8 °F - 55.4 °F 44% 30.09 in 10.0 mi South 4.6 mph - N/A   Clear
12:27 PM 78.8 °F - 55.4 °F 44% 30.09 in 10.0 mi SE 8.1 mph - N/A   Clear
12:47 PM 78.8 °F - 55.4 °F 44% 30.08 in 10.0 mi SSW 8.1 mph - N/A   Clear
1:07 PM 78.8 °F - 55.4 °F 44% 30.07 in 10.0 mi SSW 8.1 mph - N/A   Clear
1:27 PM 80.6 °F - 55.4 °F 42% 30.07 in 10.0 mi South 8.1 mph - N/A   Clear
1:47 PM 80.6 °F - 55.4 °F 42% 30.06 in 10.0 mi SSW 4.6 mph - N/A   Clear
2:08 PM 82.4 °F - 57.2 °F 42% 30.06 in 10.0 mi South 6.9 mph - N/A   Clear
2:27 PM 82.4 °F - 55.4 °F 39% 30.05 in 10.0 mi SSE 5.8 mph - N/A   Clear
2:47 PM 82.4 °F - 55.4 °F 39% 30.05 in 10.0 mi SSE 5.8 mph - N/A   Clear
3:08 PM 82.4 °F - 55.4 °F 39% 30.04 in 10.0 mi SSE 6.9 mph - N/A   Clear
3:27 PM 82.4 °F - 55.4 °F 39% 30.04 in 10.0 mi SSE 4.6 mph - N/A   Clear
3:47 PM 82.4 °F - 55.4 °F 39% 30.03 in 10.0 mi South 5.8 mph - N/A   Clear
4:07 PM 82.4 °F - 57.2 °F 42% 30.03 in 10.0 mi SSE 4.6 mph - N/A   Clear
4:27 PM 82.4 °F - 57.2 °F 42% 30.02 in 10.0 mi SSE 4.6 mph - N/A   Clear
4:47 PM 82.4 °F - 57.2 °F 42% 30.02 in 10.0 mi South 5.8 mph - N/A   Clear
5:07 PM 80.6 °F - 57.2 °F 45% 30.01 in 10.0 mi SSE 6.9 mph - N/A   Clear
5:27 PM 80.6 °F - 57.2 °F 45% 30.01 in 10.0 mi SE 6.9 mph - N/A   Clear
5:47 PM 80.6 °F - 59.0 °F 48% 30.01 in 10.0 mi SE 6.9 mph - N/A   Clear
6:07 PM 80.6 °F - 57.2 °F 45% 30.01 in 10.0 mi SSE 6.9 mph - N/A   Clear
6:27 PM 78.8 °F - 57.2 °F 47% 30.01 in 10.0 mi SSE 4.6 mph - N/A   Clear
6:47 PM 78.8 °F - 57.2 °F 47% 30.00 in 10.0 mi SSE 4.6 mph - N/A   Clear
7:07 PM 77.0 °F - 59.0 °F 54% 30.00 in 10.0 mi SSE 3.5 mph - N/A   Clear
7:27 PM 73.4 °F - 59.0 °F 61% 29.99 in 10.0 mi Calm Calm - N/A   Clear
7:48 PM 71.6 °F - 60.8 °F 69% 29.99 in 10.0 mi ESE 3.5 mph - N/A   Clear
8:07 PM 69.8 °F - 60.8 °F 73% 29.99 in 10.0 mi Calm Calm - N/A   Clear
8:27 PM 68.0 °F - 60.8 °F 78% 29.99 in 10.0 mi Calm Calm - N/A   Clear
8:48 PM 68.0 °F - 59.0 °F 73% 29.99 in 10.0 mi Calm Calm - N/A   Clear
9:07 PM 68.0 °F - 59.0 °F 73% 29.99 in 10.0 mi ESE 3.5 mph - N/A   Clear
9:27 PM 66.2 °F - 59.0 °F 78% 29.99 in 10.0 mi Calm Calm - N/A   Clear
9:47 PM 66.2 °F - 59.0 °F 78% 29.99 in 10.0 mi Calm Calm - N/A   Clear
10:07 PM 66.2 °F - 59.0 °F 78% 29.99 in 10.0 mi Calm Calm - N/A   Clear
10:27 PM 66.2 °F - 59.0 °F 78% 29.99 in 10.0 mi Calm Calm - N/A   Clear
10:47 PM 66.2 °F - 59.0 °F 78% 29.98 in 10.0 mi ESE 3.5 mph - N/A   Clear
11:07 PM 66.2 °F - 57.2 °F 73% 29.98 in 10.0 mi SE 3.5 mph - N/A   Clear
11:27 PM 64.4 °F - 57.2 °F 77% 29.98 in 10.0 mi ESE 4.6 mph - N/A   Clear
11:47 PM 66.2 °F - 59.0 °F 78% 29.98 in 10.0 mi ESE 3.5 mph - N/A   Clear